Regional Weather Roundup
Issued by NWS

Home | Current Version | Previous Version | Graphics & Text | Print | Product List | Glossary On
Versions: 1 2 3 4 5 6 7 8 9 10 11 12 13 14 15 16 17 18 19 20 21 22 23 24 25 26 27 28 29 30 31 32 33 34 35 36 37 38 39 40 41 42 43 44 45 46 47 48 49 50
000
ASUS43 KTOP 280208
RWRKS

WEATHER ROUNDUP FOR KANSAS
NATIONAL WEATHER SERVICE GOODLAND KS
800 PM CST FRI FEB 27 2015

NOTE:  "FAIR" INDICATES FEW OR NO CLOUDS BELOW 12,000 FEET WITH NO
SIGNIFICANT WEATHER AND/OR OBSTRUCTIONS TO VISIBILITY.

KSZ001>006-013>018-027>032-041>047-280300-
NORTHWEST KANSAS

CITY           SKY/WX    TMP DP  RH WIND       PRES   REMARKS
GOODLAND       CLOUDY    12   7  80 S17       30.17R WCI  -5
HAYS           CLOUDY    18   1  49 SE10      30.37S WCI   6
HILL CITY      CLOUDY    17   7  64 S12       30.35S WCI   4
RUSSELL        FAIR      12   8  84 SE7       30.39S
$$

KSZ061>065-074>080-084>089-280300-
SOUTHWEST KANSAS

CITY           SKY/WX    TMP DP  RH WIND       PRES   REMARKS
DODGE CITY     CLOUDY    12   6  77 SE13      30.32S WCI  -3
ELKHART          N/A     13   4  68 SE16        N/A  WCI  -3
GARDEN CITY    CLOUDY    11   6  81 SE13      30.27R WCI  -4
GREAT BEND     CLOUDY    14   5  67 SE10      30.41S WCI   1
LIBERAL        CLOUDY    14   7  73 E12       30.27S WCI   0
PRATT          CLOUDY    14  10  85 SE9       30.41R
$$

KSZ066>073-081>083-090>101-280300-
SOUTHEAST KANSAS

CITY           SKY/WX    TMP DP  RH WIND       PRES   REMARKS
CHANUTE        FLURRIES  18  11  74 NE6       30.53S
COFFEYVILLE    CLOUDY    18  12  77 E3        30.55R
HUTCHINSON     MOCLDY     9   4  80 E3        30.46R
MEDICINE LODGE   N/A     14  10  84 E6        30.44S
NEWTON         CLOUDY    12   7  79 SE7       30.47S
PARSONS        CLOUDY    20   7  57 NE3       30.54S
WICHITA INTL   CLOUDY    16  10  77 E8        30.47S
WICHITA JABRA  CLOUDY    15  11  83 E6        30.48R
WICHITA MCCONL CLOUDY    15  11  82 E6        30.47S
WINFIELD       CLOUDY    16  10  77 E8        30.50S
$$

KSZ007>012-019>026-033>040-048>060-102>105-280300-
NORTHEAST KANSAS

CITY           SKY/WX    TMP DP  RH WIND       PRES   REMARKS
CONCORDIA      CLEAR     10   1  67 SE7       30.46S
EMPORIA        FLURRIES  15   9  76 SE6       30.51S
LAWRENCE       CLOUDY    17   2  51 NE5       30.56S
MANHATTAN      CLOUDY    16   5  62 E6        30.51S
MARYSVILLE     CLOUDY    18   5  57 S7        30.49S
OLATHE IND     CLOUDY    18   3  52 E7        30.54S
OLATHE EXE     CLOUDY    18   2  49 E6        30.53S
SALINA         CLOUDY    17   8  67 SE7       30.48S
TOPEKA BILLARD CLOUDY    17   2  51 E7        30.55S
TOPEKA FORBES  CLOUDY    19   2  47 E5        30.52F
$$


USA.gov is the U.S. government's official web portal to all federal, state and local government web resources and services.